Location: *
(60.1759°S, 155.0663°W)
Time: 12:10:16
(UTC+00:00)

SL-16 R/B - Pass Details

Date: 17 September 2019
Orbit: 986 x 1006 km, 99.4° (Epoch: 20 October)

Event Time Altitude Azimuth Distance (km) Brightness Sun altitude
Rises 14:21:35 0° 160° (SSE) 3,751 6.3 -15.6°
Reaches altitude 10° 14:24:07 10° 163° (SSE) 2,795 5.5 -15.3°
Maximum altitude 14:30:15 58° 240° (WSW) 1,161 2.7 -14.6°
Enters shadow 14:35:04 17° 313° (NW) 2,309 3.9 -14.1°
